INTELSAT 21 (IS-21)

Last updated on Wed Jul 09 2025 00:02:44 GMT+0000 (Coordinated Universal Time)

1 38749U 12045A 25189.38434920 -.00000268 00000+0 00000+0 0 9996 2 38749 0.0234 295.3143 0001669 211.0320 220.6049 1.00271844 47078
UTC large
Height (km)
Speed (km/s)
/
Latitude / Longitude
Inclination (degrees)
Orbital Period (minutes)
Azimuth
Elevation
Range (km)
Doppler Factor

Next 0 passes for location: London (51.5072 / 0.1276)

Sorry there are no passes over London.